* Astronomy

Members Login
Username 
 
Password 
    Remember Me  
Post Info TOPIC: Asteroid 2010 XG11


L

Posts: 131433
Date:
Asteroid 2010 XG11
Permalink  
 


Orbital elements:
2010 XG11                                                Earth MOID = 0.3544 AU
Epoch 2012 Mar. 14.0 TT = JDT 2456000.5                 MPC
M 263.13385              (2000.0)            P               Q
n   0.46360687     Peri.   87.86543     +0.86913423     +0.27317579
a   1.6533678      Node   256.07723     -0.40172933     +0.87617217
e   0.3137463      Incl.   25.13588     +0.28847745     +0.39711121
P   2.13           H   20.0           G   0.15           U   3

MPEC 2012 - K28



__________________
Page 1 of 1  sorted by
 
Quick Reply

Please log in to post quick replies.



Create your own FREE Forum
Report Abuse
Powered by ActiveBoard